Regional Weather Roundup
Issued by NWS Grand Forks, ND

Home | Current Version | Previous Version | Graphics & Text | Print | Product List | Glossary On
Versions: 1 2 3 4 5 6 7 8 9 10 11 12 13 14 15 16 17 18 19 20 21 22 23 24 25 26 27 28 29 30 31 32 33 34 35 36 37 38 39 40 41 42 43 44 45 46 47 48 49 50
000
ASUS43 KFGF 171310
RWRFGF
PRAIRIE TO PINES  WEATHER ROUNDUP
NATIONAL WEATHER SERVICE EASTERN NORTH DAKOTA/GRAND FORKS ND
800 AM CDT WED SEP 17 2014

 **SATELLITE DATA USED TO AUGMENT SKY COVER AT AUTOMATED STATIONS**
 *****  WEATHER ACROSS EASTERN NORTH DAKOTA  *****

CITY           SKY/WX    TMP DP  RH WIND       PRES   REMARKS
GRAND FORKS    PTCLDY    44  41  89 NW6       29.95R
GRAND FRKS AFB CLEAR     44  44  99 N8        29.96R
DEVILS LAKE    CLEAR     45  37  76 CALM      29.94R
FARGO          CLEAR     47  44  90 N10       29.93R
WAHPETON ARPT  SUNNY     43  41  93 CALM      29.93R
$$

 ***** WEATHER ACROSS CENTRAL AND WESTERN NORTH DAKOTA  *****

CITY           SKY/WX    TMP DP  RH WIND       PRES   REMARKS
BISMARCK       CLEAR     37  37 100 CALM      29.96R
MINOT          CLEAR     43  38  82 N6        29.96R
JAMESTOWN      CLEAR     44  41  89 CALM      29.94R
MINOT AFB      CLEAR     46  43  90 N1        29.96R
GARRISON         N/A     40  38  93 NW5       29.95R
WILLISTON      PTCLDY    41  37  86 CALM      29.96R
DICKINSON      MOCLDY    46  42  86 CALM      29.95R
HETTINGER      PTCLDY    40  38  93 CALM      29.97R
$$

 *****  OTHER AIRPORT OBSERVATIONS IN OUR AREA  *****

CITY           SKY/WX    TMP DP  RH WIND       PRES   REMARKS
WALHALLA         N/A     46  46 100 N9        30.01R FOG
GRAFTON AIRPOR FAIR      45  45 100 N10       29.96R
VALLEY CITY AR FAIR      45  45 100 N8        29.93S
CANDO          FAIR      43  41  93 N9        29.99R
CAVALIER APRT  FOG       45  45 100 N10G18    29.99R VSB 3/4
GWINNER        SUNNY     46  46 100 W6        29.94R
ROLLA          FOG       43  43 100 N10       30.01R VSB<1/4
 ***** THE ABOVE OBSERVATIONS ARE NON NWS ARE NOT QUALITY
       CONTROLLED AND MAY MIS-REPORT RAIN FOR SNOW...
$$

  *****  WEATHER ACROSS NORTHERN MINNESOTA  *****

CITY           SKY/WX    TMP DP  RH WIND       PRES   REMARKS
FLAG ISLAND    CLOUDY    45  41  87 NE8       29.99R
WARROAD        CLOUDY    52  46  82 N10       29.97R
ROSEAU         MOCLDY    50  45  81 NE9       29.96R
HALLOCK        CLEAR     46  45  93 N8        29.96R
THF RVR FALLS  CLEAR     43  41  93 SE5       29.93S
BAUDETTE       CLOUDY    49  46  90 NE12      29.96R
WASKISH        MOCLDY    45  43  93 CALM      29.92F
CROOKSTON      CLEAR     43  43 100 SE3       29.94S
STEPHEN NDAWN    N/A     45  43  93 N6          N/A
GREENBUSH NDAW   N/A     46  46 100 N6          N/A
$$
  *****  WEATHER ACROSS CENTRAL AND WEST MINNESOTA  *****

CITY           SKY/WX    TMP DP  RH WIND       PRES   REMARKS
FOSSTON        CLEAR     43  41  93 CALM      29.96R
BEMIDJI        PTCLDY    43  41  92 CALM      29.94F
PARK RAPIDS    CLEAR     41  39  93 CALM      29.93S
ELBOW LAKE     FAIR      50  48  91 SE3       29.92S
WADENA         CLEAR     43  41  93 CALM      29.93R
DETROIT LAKES  CLEAR     48  46  93 CALM      29.93S
MOORHEAD       CLEAR     46  46 100 CALM      29.93R
FERGUS FALLS   CLEAR     50  46  87 S3        29.93R
MORRIS MN      CLEAR     48  46  93 SE3       29.92R
STAPLES        CLEAR     43  43 100 CALM      29.94R
$$
  *****  WEATHER ELSEWHERE ACROSS MINNESOTA  *****

CITY           SKY/WX    TMP DP  RH WIND       PRES   REMARKS
DULUTH         MOSUNNY   52  43  71 W9        29.93R
INTRNTL FALLS  LGT RAIN  49  46  90 NE8       29.94R
ELY            PTSUNNY   48  45  87 CALM      29.92S
CLOQUET        FAIR      50  43  76 W5        29.93S
WHEATON        CLEAR     43  43 100 SE3       29.94R FOG
BRAINERD       PTCLDY    43  43 100 CALM      29.94S
HIBBING        SUNNY     41  39  93 CALM      29.94R
ALEXANDRIA     CLEAR     51  48  89 CALM      29.94R
SAINT CLOUD    SUNNY     49  46  90 CALM      29.94R
MINNEAPOLIS    PTSUNNY   56  49  77 S6        29.96R
$$

  *****  WEATHER ACROSS SOUTH DAKOTA  *****

CITY           SKY/WX    TMP DP  RH WIND       PRES   REMARKS
SIOUX FALLS    PTCLDY    51  49  92 CALM      29.93R
BROOKINGS      NOT AVBL
WATERTOWN      CLEAR     48  47  96 CALM      29.93R
HURON          PTCLDY    48  46  93 CALM      29.92R
SISSETON         N/A     48  48 100 CALM      29.91R
ABERDEEN       FOG       43  43 100 CALM      29.93S VSB 1
MITCHELL       CLEAR     48  47  96 S3        29.92R
PIERRE         CLEAR     47  46  97 NE5       29.91R
MOBRIDGE       CLEAR     47  47 100 CALM      29.92R
RAPID CITY     CLEAR     51  39  63 NW10      29.96R
$$

  *****  SOME WEATHER IN NEARBY STATES *****

CITY           SKY/WX    TMP DP  RH WIND       PRES   REMARKS
GLASGOW MT     MOCLDY    52  41  66 E15       29.88F
GREAT FALLS MT MOCLDY    58  46  64 SW14      29.90S
CHEYENNE WY    CLEAR     51  38  60 W9        30.13R
SCOTTSBLUFF NE CLEAR     48  45  89 CALM      30.00R
OMAHA NE       PTCLDY    59  53  80 CALM      29.93S
DES MOINES IA  CLOUDY    58  51  78 SE7       29.96S
DAVENPORT IA   SUNNY     51  47  86 SE3       30.02F
CHICAGO IL     PTSUNNY   52  47  83 CALM      30.05S
EAU CLAIRE WI  MOSUNNY   47  45  93 CALM      29.98R
LA CROSSE WI   CLOUDY    52  48  86 SE7       30.00F
$$

  *****  SOME NATIONAL WEATHER *****

CITY           SKY/WX    TMP DP  RH WIND       PRES   REMARKS
LA GUARDIA NY  MOSUNNY   62  49  62 NE6       30.05S
RALEIGH NC     PTSUNNY   69  60  73 NE9       30.00R
ATLANTA GA     SUNNY     69  63  81 N10       30.00R
NEW ORLEANS LA MOSUNNY   77  73  87 CALM      29.97R
OKLAHOMA CITY  MOCLDY    70  68  93 S6        29.96S FOG
ALBUQUERQUE NM LGT RAIN  62  57  83 CALM      30.18R
SALT LAKE CITY MOCLDY    70  42  36 SE12      29.95R
LOS ANGELES CA CLEAR     76  64  66 CALM      29.72S
BOISE ID       CLOUDY    69  42  37 E5        29.84R
SEATTLE WA     MOCLDY    60  54  80 CALM      29.80F
$$

*** WEATHER ACROSS MANITOBA...SASKATCHEWAN AND ONTARIO ***
                ***ONTARIO***

CITY           SKY/WX    TMP DP  RH WIND       PRES   REMARKS
GERALDTON      PTSUNNY   32  30  93 E3        30.05S
THUNDER BAY    LGT RAIN  41  39  93 NE12G18   29.99R
SIOUX LOOKOUT  NOT AVBL
TORONTO        MOSUNNY   55  48  76 W6        30.03S
BIG TROUT LK   CLOUDY    36  21  55 NW10G18   30.09R
PICKLE LAKE    FOG       30  30 100 E3        30.08R VSB 1/8
DRYDEN         CLOUDY    37  36  93 E10G17    30.02R
KENORA         CLOUDY    39  37  93 NE10      30.01R
$$
                *** MANITOBA***

CITY           SKY/WX    TMP DP  RH WIND       PRES   REMARKS
BRANDON        CLOUDY    43  41  93 E14       30.05R
DAUPHIN        CLOUDY    41  39  93 E8        30.10R
ISLAND LAKE    PTCLDY    34  32  93 NW3       30.15S
PILOT MOUND      N/A     45  43  93 NE9         N/A
THE PAS        MOCLDY    34  30  86 E7        30.16R
THOMPSON       PTCLDY    19  19 100 CALM      30.19S
WINNIPEG       CLOUDY    41  39  93 NE13      30.05R
LYNN LAKE      CLEAR     21  19  93 SE2       30.17S FOG
CHURCHILL      MOCLDY    32  21  64 NW21G26   30.13R WCI  20
$$
                ***SASKATCHEWAN***

CITY           SKY/WX    TMP DP  RH WIND       PRES   REMARKS
ESTEVAN        PTCLDY    46  41  81 E10       29.97R
KINDERSLEY     PTCLDY    41  41 100 NE5       29.91R FOG
LLOYDMINSTER   FOG       45  43  93 SE14      29.89S VSB 1/4
PRINCE ALBERT  CLOUDY    39  39 100 E9        30.04R FOG
REGINA         CLOUDY    46  46 100 E16       29.95R
YORKTON        CLOUDY    43  41  93 E12G18    30.05R
N. BATTLEFORD  FOG       41  41 100 SE15G25   29.97R VSB 1
LA RONGE       DRIZZLE   39  36  87 SE13G20   30.09S
SASKATOON      CLOUDY    45  45 100 E15       29.98S FOG
SWIFT CURRENT  CLEAR     46  39  76 SE7       29.90R
$$
NOTE: THESE ARE AUTOMATED STATIONS WITH LIMITED QUALITY CONTROL
      "FAIR" INDICATES FEW OR NO CLOUDS BELOW 12,000 FEET WITH NO
      SIGNIFICANT WEATHER AND/OR OBSTRUCTIONS TO VISIBILITY.
      SKY/WX - SKY CONDITION AND SIGNIFICANT WEATHER.
      TMP - AIR TEMPERATURE.    DP   - DEWPOINT TEMPERATURE.
      RH  - RELATIVE HUMIDITY.  PRES - PRESSURE.
      HX  - HEAT INDEX.         WCI  - WIND CHILL INDEX.
$


USA.gov is the U.S. government's official web portal to all federal, state and local government web resources and services.